Simultaneous Nadir Overpasses (SNOs) Predictions

Prediction of SNOs between METOP-A and TERRA Satellite Orbit:

Table of predicted SNOs for the next 14.0 days since TLE Epoch: 8/21/2021
Index Date (METOP-A) Time (METOP-A) Lat,Lon (METOP-A) SZA (METOP-A ) Date (TERRA) Time (TERRA) Lat,Lon (TERRA) SZA (TERRA ) Distance(km) Time Diff (sec)
1 08/22/2021 11:08:13 -81.27,-121.65 107.78 08/22/2021 11:09:03 -81.29,-121.82 107.76 3.37 50
2 08/22/2021 11:58:54 81.27, 45.67 72.24 08/22/2021 11:58:30 81.27, 45.56 72.22 1.87 24
3 08/25/2021 06:42:34 -81.28, -55.41 106.82 08/25/2021 06:43:15 -81.29, -55.38 106.79 1.41 41
4 08/25/2021 07:33:15 81.28, 111.88 73.20 08/25/2021 07:32:42 81.27, 111.97 73.19 1.77 33
5 08/28/2021 02:16:55 -81.28, 10.82 105.83 08/28/2021 02:17:28 -81.26, 10.65 105.85 3.39 33
6 08/28/2021 03:07:35 81.27, 178.44 74.21 08/28/2021 03:06:54 81.27, 178.34 74.18 1.67 41
7 08/30/2021 21:51:14 -81.27, 77.39 104.80 08/30/2021 21:51:38 -81.28, 77.38 104.78 1.13 24
8 08/30/2021 22:41:55 81.28,-115.40 75.21 08/30/2021 22:41:05 81.26,-115.33 75.18 2.10 50
9 09/02/2021 17:25:35 -81.28, 143.57 103.78 09/02/2021 17:25:50 -81.27, 143.71 103.76 2.26 15



Historial Predications of SNOs between METOP-A and TERRA
